Location: Добрич
(43.6638°N, 27.9002°E)
Time: 06:00:22
(UTC+03:00)

ISS - Pass Details

Date: 22 April 2026
Orbit: 414 x 424 km, 51.6° (Epoch: 15 May)

Event Time Altitude Azimuth Distance (km) Brightness Sun altitude
Exits shadow 04:56:59 26° 242° (WSW) 851 -2.8 -13.6°
Maximum altitude 04:58:43 83° 327° (NNW) 427 -3.8 -13.3°
Drops below altitude 10° 05:02:06 10° 57° (ENE) 1,506 0.6 -12.8°
Sets 05:04:13 0° 58° (ENE) 2,375 2.2 -12.4°
